Regional Weather Roundup
Issued by NWS Burlington, VT

Home | Current Version | Previous Version | Text Only | Print | Product List | Glossary On
Versions: 1 2 3 4 5 6 7 8 9 10 11 12 13 14 15 16 17 18 19 20 21 22 23 24 25 26 27 28 29 30 31 32 33 34 35 36 37 38 39 40 41 42 43 44 45 46 47 48 49 50
000
ASUS41 KBTV 040630
RWRBTV
VERMONT REGIONAL WEATHER ROUNDUP
NATIONAL WEATHER SERVICE BURLINGTON VT
100 AM EST WED MAR 04 2015

NOTE: "FAIR" INDICATES FEW OR NO CLOUDS BELOW 12,000 FEET WITH NO
SIGNIFICANT WEATHER AND/OR OBSTRUCTIONS TO VISIBILITY.

* THESE REPORTS ARE NOT UNDER NWS QUALITY CONTROL AND/OR DO NOT
  REPORT WEATHER SUCH AS PRECIPITATION AND FOG.

VTZ001>019-040700-
_____VERMONT_____


CITY           SKY/WX    TMP DP  RH WIND       PRES   REMARKS
BURLINGTON     CLOUDY    29  22  75 S20G35    29.57S WCI  16
6HR MIN TEMP:  22; 6HR MAX TEMP:  29; 6HR PCP:  0.05;

MONTPELIER     CLOUDY    22  19  89 S3        29.62F
6HR MIN TEMP:  19; 6HR MAX TEMP:  22; 6HR PCP:  0.01;

MORRISVILLE    CLOUDY    26  20  77 CALM      29.58F
6HR MIN TEMP:  23; 6HR MAX TEMP:  26; 6HR PCP:  0.02;

ST. JOHNSBURY*   N/A     25  21  85 MISG      29.60F
6HR MIN TEMP:  21; 6HR MAX TEMP:  25; 6HR PCP:  0.13;

LYNDONVILLE*   CLOUDY    24  20  87 SE7       29.59F
6HR MIN TEMP:  20; 6HR MAX TEMP:  23;

MIDDLEBURY*    MIX PCPN  29  29  99 S8G17     29.61F
6HR MIN TEMP:  23; 6HR MAX TEMP:  28;

RUTLAND*       CLOUDY    28  27  93 CALM      29.62F
6HR MIN TEMP:  21; 6HR MAX TEMP:  28; 6HR PCP:  0.01;

SPRINGFIELD    CLOUDY    23  21  92 VRB3      29.67F
6HR MIN TEMP:  21; 6HR MAX TEMP:  23; 6HR PCP:  0.08;

HIGHGATE*      CLOUDY    28  22  77 S14G23    29.55R WCI  17
6HR MIN TEMP:  21; 6HR MAX TEMP:  28;

NEWPORT*       CLOUDY    23  19  86 S6        29.56F
6HR MIN TEMP:  19; 6HR MAX TEMP:  23;

BENNINGTON     CLOUDY    35  29  78 MISG      29.66F
6HR MIN TEMP:  23; 6HR MAX TEMP:  35; 6HR PCP:  0.09;

SUTTON*          N/A     21 N/A N/A MISG        N/A
MT. MANSFIELD*   N/A     19 N/A N/A CALM        N/A

_____LAKE CHAMPLAIN_____


CITY           SKY/WX    TMP DP  RH WIND       PRES   REMARKS
BURTON ISLAND*   N/A     28  27  93 S26G32      N/A  WCI  13
COLCHESTER RF*   N/A     28  27  93 S35         N/A  WCI  12
DIAMOND ISL*     N/A     28  27  93 S26         N/A  WCI  13

$$

NYZ007-026>031-035-052-083-040700-
_____NORTHERN NEW YORK_____


CITY           SKY/WX    TMP DP  RH WIND       PRES   REMARKS
PLATTSBURGH    CLOUDY    26  21  81 S16       29.56R WCI  14
6HR MIN TEMP:  22; 6HR MAX TEMP:  26; 6HR PCP: TRACE;

SARANAC LAKE   CLOUDY    28  26  92 SW14      29.48S FOG     WCI  17
6HR MIN TEMP:  19; 6HR MAX TEMP:  28; 6HR PCP:  0.02;

MASSENA        FRZ RAIN  33  32  96 SW15G26   29.55S
6HR MIN TEMP:  23; 6HR MAX TEMP:  32; 6HR PCP:  0.07;

OGDENSBURG*    CLOUDY    34  32  93 W12G21    29.56R
POTSDAM*       MIX PCPN  34  32  93 W14G24    29.55R
WATERTOWN      CLOUDY    35  31  85 SW13      29.62R
6HR MIN TEMP:  28; 6HR MAX TEMP:  35; 6HR PCP:  0.04;

FT DRUM        CLOUDY    32  32 100 W10       29.58R
6HR MIN TEMP:  23; 6HR MAX TEMP:  33; 6HR PCP:  0.03;

ALBANY         CLOUDY    31  25  78 S15G23    29.69F
6HR MIN TEMP:  24; 6HR MAX TEMP:  31; 6HR PCP:  0.08;

GLENS FALLS    CLOUDY    27  24  89 SW7       29.67F FOG
6HR MIN TEMP:  24; 6HR MAX TEMP:  27; 6HR PCP:  0.04;


$$
NHZ002-005-011-040700-
_____NEW HAMPSHIRE_____


CITY           SKY/WX    TMP DP  RH WIND       PRES   REMARKS
LEBANON        LGT SNOW  26  22  84 S9        29.66F FOG
6HR MIN TEMP:  22; 6HR MAX TEMP:  26; 6HR PCP:  0.06;

KEENE          CLOUDY    28  27  93 CALM      29.69F
6HR MIN TEMP:  23; 6HR MAX TEMP:  30; 6HR PCP:  0.05;

MT WASHINGTON  BLWGSNOW  16  16 100 W81G90      N/A  VSB 0   WCI -13
6HR MIN TEMP:   1; 6HR MAX TEMP:  19; 6HR PCP:  0.50;

PLYMOUTH       CLOUDY    24  24 100 CALM      29.69F FOG
6HR MIN TEMP:  22; 6HR MAX TEMP:  26; 6HR PCP:  0.07;

WHITEFIELD     CLOUDY    26  22  84 SE3       29.59F
6HR MIN TEMP:  22; 6HR MAX TEMP:  28; 6HR PCP:  0.04;


$$

_____REGIONAL QUEBEC LOCATIONS_____


CITY           SKY/WX    TMP DP  RH WIND       PRES   REMARKS
MONTREAL       FRZ DRZL  25  23  93 S7        29.53S
QUEBEC CITY    LGT SNOW  18  14  86 NE8       29.55F
SHERBROOKE     FRZ RAIN  25  23  93 S14G23    29.51F FOG     WCI  13

_____REGIONAL ONTARIO LOCATIONS_____


CITY           SKY/WX    TMP DP  RH WIND       PRES   REMARKS
OTTAWA         FLURRIES  21  21 100 SW5       29.53R

______KEY______
VSB  - VISIBILITY IN MILES
WCI  - WIND CHILL INDEX
HX   - HEAT INDEX
$$
NNNN



USA.gov is the U.S. government's official web portal to all federal, state and local government web resources and services.